User: anonymous   Login
Location: Campillo
(40.8621°N, 4.2488°W)
Time: 23:34:39
(UTC+00:00)
Language:

Cosmos 2084 - Orbit

View from above orbital plane
View from above orbital plane
View from above satellite
View from above satellite

Ground track
Ground track

The orbit data is extracted from the following two-line orbital elements,

1 20663U 90055A   21204.53478666  .00000066  00000-0  24417-4 0  9994
2 20663  62.7938 268.8256 0075613  11.9869 348.3001 14.92272070683209
Epoch (UTC): 23 July 2021 12:50:05
Eccentricity: 0.0075613
inclination: 62.7938°
perigee height: 538 km
apogee height: 643 km
right ascension of ascending node: 268.8256°
argument of perigee: 11.9869°
revolutions per day: 14.92272070
mean anomaly at epoch: 348.3001°
orbit number at epoch: 68320

The dashed part of the orbit path shows where the satellite is in the earth's shadow,  

DLR